• In Czech Republic
  • List of Countries
  • For 7 days
  • Water Temperature
  • Satellite Maps
  • Weather Map
  • Weather Widgets
  • user-avatar
    Login

    Hourly Weather Kokpekty

    Today, 22 September, Saturday

    Time Temperature Precipitation Wind Pressure Humidity
    00:00 +9°C° 0 mm 7 mps 714 mmHg 59%
    01:00 +9°C° 0 mm 7 mps 714 mmHg 59%
    02:00 +9°C° 0 mm 6 mps 714 mmHg 59%
    03:00 +9°C° 0 mm 6 mps 714 mmHg 60%
    04:00 +8°C° 0 mm 6 mps 714 mmHg 60%
    05:00 +8°C° 0 mm 6 mps 714 mmHg 62%
    06:00 +9°C° 0 mm 7 mps 714 mmHg 59%
    07:00 +10°C° 0 mm 8 mps 714 mmHg 56%
    08:00 +10°C° 0 mm 9 mps 714 mmHg 53%
    09:00 +12°C° 0 mm 9 mps 714 mmHg 49%
    10:00 +13°C° 0 mm 9 mps 714 mmHg 44%
    11:00 +14°C° 0 mm 10 mps 714 mmHg 41%
    12:00 +16°C° 0 mm 10 mps 714 mmHg 39%
    13:00 +16°C° 0 mm 10 mps 714 mmHg 37%
    14:00 +17°C° 0 mm 10 mps 714 mmHg 36%
    15:00 +16°C° 0 mm 9 mps 714 mmHg 37%
    16:00 +16°C° 0 mm 8 mps 714 mmHg 38%
    17:00 +15°C° 0 mm 8 mps 714 mmHg 40%
    18:00 +14°C° 0 mm 6 mps 714 mmHg 44%
    19:00 +13°C° 0 mm 5 mps 714 mmHg 49%
    20:00 +12°C° 0 mm 4 mps 714 mmHg 54%
    21:00 +12°C° 0 mm 4 mps 714 mmHg 59%
    22:00 +11°C° 0 mm 4 mps 714 mmHg 63%
    23:00 +11°C° 0 mm 4 mps 714 mmHg 68%

    Tomorrow, 23 September, Sunday

    Time Temperature Precipitation Wind Pressure Humidity
    00:00 +10°C° 0 mm 4 mps 714 mmHg 71%
    01:00 +10°C° 0 mm 4 mps 714 mmHg 75%
    02:00 +10°C° 0 mm 4 mps 714 mmHg 78%
    03:00 +10°C° 0.2 mm 4 mps 714 mmHg 79%
    04:00 +10°C° 0.2 mm 4 mps 714 mmHg 81%
    05:00 +10°C° 0.2 mm 4 mps 714 mmHg 83%
    06:00 +9°C° 0.6 mm 5 mps 714 mmHg 83%
    07:00 +9°C° 0.6 mm 5 mps 714 mmHg 83%
    08:00 +9°C° 0.6 mm 6 mps 714 mmHg 83%
    09:00 +9°C° 1.5 mm 6 mps 714 mmHg 84%
    10:00 +9°C° 1.5 mm 6 mps 713 mmHg 85%
    11:00 +9°C° 1.5 mm 6 mps 713 mmHg 87%
    12:00 +10°C° 0.6 mm 5 mps 713 mmHg 83%
    13:00 +10°C° 0.6 mm 5 mps 713 mmHg 80%
    14:00 +12°C° 0.6 mm 4 mps 714 mmHg 77%
    15:00 +12°C° 0.2 mm 4 mps 714 mmHg 74%
    16:00 +12°C° 0.2 mm 4 mps 714 mmHg 71%
    17:00 +12°C° 0.2 mm 4 mps 714 mmHg 69%
    18:00 +11°C° 0.1 mm 3 mps 715 mmHg 73%
    19:00 +10°C° 0.1 mm 3 mps 715 mmHg 77%
    20:00 +9°C° 0.1 mm 3 mps 715 mmHg 82%
    21:00 +9°C° 0 mm 3 mps 715 mmHg 85%
    22:00 +8°C° 0 mm 2 mps 716 mmHg 87%
    23:00 +8°C° 0 mm 2 mps 716 mmHg 90%

    Day after tomorrow, 24 September, Monday

    Time Temperature Precipitation Wind Pressure Humidity
    00:00 +7°C° 0 mm 2 mps 716 mmHg 91%
    01:00 +7°C° 0 mm 2 mps 716 mmHg 92%
    02:00 +6°C° 0 mm 2 mps 716 mmHg 94%
    03:00 +6°C° 0 mm 2 mps 717 mmHg 94%
    04:00 +7°C° 0 mm 1 mps 717 mmHg 95%
    05:00 +6°C° 0 mm 1 mps 717 mmHg 95%
    06:00 +7°C° 0 mm 1 mps 718 mmHg 92%
    07:00 +8°C° 0 mm 1 mps 718 mmHg 89%
    08:00 +9°C° 0 mm 1 mps 718 mmHg 86%
    09:00 +9°C° 0 mm 2 mps 719 mmHg 81%
    10:00 +9°C° 0 mm 2 mps 719 mmHg 77%
    11:00 +10°C° 0 mm 2 mps 719 mmHg 72%
    12:00 +10°C° 0 mm 3 mps 719 mmHg 69%
    13:00 +11°C° 0 mm 3 mps 719 mmHg 65%
    14:00 +11°C° 0 mm 3 mps 719 mmHg 62%
    15:00 +11°C° 0 mm 3 mps 720 mmHg 62%
    16:00 +11°C° 0 mm 3 mps 720 mmHg 63%
    17:00 +11°C° 0 mm 3 mps 720 mmHg 63%
    18:00 +10°C° 0 mm 2 mps 720 mmHg 68%
    19:00 +9°C° 0 mm 2 mps 720 mmHg 73%
    20:00 +9°C° 0 mm 1 mps 721 mmHg 78%
    21:00 +8°C° 0 mm 2 mps 721 mmHg 78%
    22:00 +8°C° 0 mm 2 mps 721 mmHg 79%
    23:00 +8°C° 0 mm 2 mps 721 mmHg 80%

    25 September, Tuesday

    Time Temperature Precipitation Wind Pressure Humidity
    00:00 +7°C° 0 mm 2 mps 721 mmHg 81%
    01:00 +7°C° 0 mm 2 mps 721 mmHg 82%
    02:00 +7°C° 0 mm 2 mps 721 mmHg 82%
    03:00 +7°C° 0 mm 2 mps 721 mmHg 83%
    04:00 +7°C° 0 mm 2 mps 722 mmHg 84%
    05:00 +6°C° 0 mm 2 mps 722 mmHg 84%
    06:00 +8°C° 0 mm 2 mps 722 mmHg 80%
    07:00 +9°C° 0 mm 2 mps 722 mmHg 75%
    08:00 +11°C° 0 mm 1 mps 723 mmHg 70%
    09:00 +12°C° 0 mm 1 mps 723 mmHg 64%
    10:00 +14°C° 0 mm 1 mps 723 mmHg 57%
    11:00 +15°C° 0 mm 1 mps 723 mmHg 51%
    12:00 +16°C° 0 mm 1 mps 723 mmHg 49%
    13:00 +18°C° 0 mm 1 mps 723 mmHg 46%
    14:00 +19°C° 0 mm 1 mps 723 mmHg 43%
    15:00 +19°C° 0 mm 1 mps 723 mmHg 45%
    16:00 +19°C° 0 mm 1 mps 723 mmHg 46%
    17:00 +19°C° 0 mm 1 mps 723 mmHg 47%
    18:00 +18°C° 0 mm 1 mps 723 mmHg 51%
    19:00 +15°C° 0 mm 1 mps 723 mmHg 56%
    20:00 +14°C° 0 mm 1 mps 723 mmHg 60%
    21:00 +13°C° 0 mm 1 mps 723 mmHg 61%
    22:00 +13°C° 0 mm 2 mps 723 mmHg 62%
    23:00 +13°C° 0 mm 2 mps 723 mmHg 63%

    26 September, Wednesday

    Time Temperature Precipitation Wind Pressure Humidity
    00:00 +12°C° 0 mm 2 mps 723 mmHg 64%
    01:00 +12°C° 0 mm 2 mps 723 mmHg 65%
    02:00 +12°C° 0 mm 2 mps 723 mmHg 67%
    03:00 +12°C° 0 mm 2 mps 723 mmHg 68%
    04:00 +10°C° 0 mm 2 mps 723 mmHg 69%
    05:00 +10°C° 0 mm 2 mps 723 mmHg 70%
    06:00 +12°C° 0 mm 2 mps 723 mmHg 66%
    07:00 +13°C° 0 mm 2 mps 723 mmHg 63%
    08:00 +15°C° 0 mm 2 mps 724 mmHg 59%
    09:00 +16°C° 0 mm 2 mps 724 mmHg 53%
    10:00 +18°C° 0 mm 2 mps 724 mmHg 47%
    11:00 +20°C° 0 mm 3 mps 724 mmHg 41%
    12:00 +20°C° 0 mm 3 mps 724 mmHg 38%
    13:00 +21°C° 0 mm 3 mps 723 mmHg 36%
    14:00 +22°C° 0 mm 3 mps 723 mmHg 33%
    15:00 +22°C° 0 mm 3 mps 723 mmHg 35%
    16:00 +21°C° 0 mm 3 mps 723 mmHg 37%
    17:00 +21°C° 0 mm 3 mps 723 mmHg 39%
    18:00 +19°C° 0 mm 3 mps 723 mmHg 43%
    19:00 +18°C° 0 mm 4 mps 723 mmHg 47%
    20:00 +17°C° 0 mm 4 mps 722 mmHg 51%
    21:00 +15°C° 0 mm 4 mps 722 mmHg 53%
    22:00 +14°C° 0 mm 4 mps 722 mmHg 55%
    23:00 +14°C° 0 mm 4 mps 722 mmHg 57%

    27 September, Thursday

    Time Temperature Precipitation Wind Pressure Humidity
    00:00 +13°C° 0 mm 4 mps 722 mmHg 59%
    01:00 +13°C° 0 mm 3 mps 722 mmHg 60%
    02:00 +12°C° 0 mm 3 mps 722 mmHg 61%
    03:00 +12°C° 0 mm 3 mps 721 mmHg 62%
    04:00 +11°C° 0 mm 3 mps 721 mmHg 63%
    05:00 +11°C° 0 mm 3 mps 721 mmHg 64%
    06:00 +12°C° 0 mm 4 mps 721 mmHg 61%
    07:00 +13°C° 0 mm 4 mps 721 mmHg 57%
    08:00 +14°C° 0 mm 5 mps 721 mmHg 54%
    09:00 +16°C° 0 mm 5 mps 721 mmHg 48%
    10:00 +19°C° 0 mm 5 mps 721 mmHg 41%
    11:00 +20°C° 0 mm 6 mps 720 mmHg 35%
    12:00 +21°C° 0 mm 5 mps 720 mmHg 32%
    13:00 +22°C° 0 mm 5 mps 720 mmHg 30%
    14:00 +23°C° 0 mm 5 mps 719 mmHg 27%
    15:00 +23°C° 0 mm 4 mps 719 mmHg 29%
    16:00 +22°C° 0 mm 4 mps 718 mmHg 31%
    17:00 +22°C° 0 mm 3 mps 718 mmHg 32%
    18:00 +20°C° 0 mm 3 mps 718 mmHg 35%
    19:00 +19°C° 0 mm 4 mps 718 mmHg 39%
    20:00 +17°C° 0 mm 4 mps 717 mmHg 42%
    21:00 +15°C° 0 mm 4 mps 717 mmHg 42%
    22:00 +15°C° 0 mm 4 mps 717 mmHg 43%
    23:00 +14°C° 0 mm 3 mps 717 mmHg 44%
    Show more